Weather History for Moline, IL

Change the Weather History Date:

Sunday, January 16, 2011

  Actual Average Record
Temperature  
Mean Temperature 12 °F 22 °F  
Max Temperature 21 °F 31 °F 59 °F (1990)
Min Temperature 2 °F 14 °F -27 °F (2009)
Degree Days  
Heating Degree Days 53 43  
Month to date heating degree days 721 677  
Since 1 July heating degree days 3079 3098  
Cooling Degree Days 0 0  
Month to date cooling degree days 0 0  
Year to date cooling degree days 0 0  
Moisture  
Dew Point 8 °F    
Average Humidity 78    
Maximum Humidity 88    
Minimum Humidity 67    
Precipitation  
Precipitation 0.00 in 0.05 in 0.72 in (1969)
Month to date precipitation 0.20 0.81  
Year to date precipitation 0.20 0.81  
Snow  
Snow 0.00 in 0.30 in - ()
Month to date snowfall 3.7 4.9  
Since 1 July snowfall 21.0 15.4  
Snow Depth 2.00 in    
Sea Level Pressure  
Sea Level Pressure 30.26 in    
Wind  
Wind Speed 4 mph (ESE)    
Max Wind Speed 12 mph    
Max Gust Speed 15 mph    
Visibility 9 miles    
Events      
T = Trace of Precipitation, MM = Missing Value Source: NWS Daily Summary

Daily Weather History Graph

Daily Weather History Graph

Search for Another Location

Airport:

Trip Planner

Search our weather history database for the weather conditions in past years. The results will help you decide how hot, cold, wet, or windy it might be!

Date:

Astronomy

Jan. 16, 2011 Rise Set
Actual Time 7:25 AM CST 4:58 PM CST
Civil Twilight 6:55 AM CST 5:28 PM CST
Nautical Twilight 6:21 AM CST 6:02 PM CST
Astronomical Twilight 5:47 AM CST 6:35 PM CST
Moon 1:46 PM CST (1/16) 4:31 AM CST (1/16)
Length of Visible Light 10h 33m
Length of Day
9h 32m
Waxing Gibbous, 88% of the Moon is Illuminated
Jan 16
Waxing Gibbous
Jan 19
Full
Jan 26
Last Quarter
Feb 2
New
Feb 11
First Quarter

Hourly Weather History & Observations

Time (CST) Temp. Windchill Dew Point Humidity Pressure Visibility Wind Dir Wind Speed Gust Speed Precip Events Conditions
12:52 AM 10.9 °F - 5.0 °F 77% 30.32 in 10.0 mi Calm Calm - N/A   Clear
1:52 AM 7.0 °F - 3.0 °F 84% 30.33 in 9.0 mi Calm Calm - N/A   Clear
2:52 AM 6.8 °F - 3.2 °F 85% 30.30 in 8.0 mi Calm Calm - N/A   Clear
3:52 AM 3.0 °F -4.4 °F -0.0 °F 87% 30.33 in 8.0 mi SW 3.5 mph - N/A   Clear
4:52 AM 3.0 °F - -0.9 °F 84% 30.32 in 8.0 mi Calm Calm - N/A   Clear
5:52 AM 3.2 °F -4.2 °F -0.4 °F 85% 30.28 in 9.0 mi West 3.5 mph - N/A   Clear
6:52 AM 3.9 °F - -0.0 °F 84% 30.33 in 8.0 mi Calm Calm - N/A   Clear
7:52 AM 7.0 °F - 3.0 °F 84% 30.33 in 7.0 mi Calm Calm - N/A   Mostly Cloudy
8:52 AM 10.0 °F - 6.1 °F 84% 30.35 in 7.0 mi Calm Calm - N/A   Mostly Cloudy
9:52 AM 12.9 °F 6.9 °F 7.0 °F 77% 30.35 in 10.0 mi ENE 3.5 mph - N/A   Mostly Cloudy
10:52 AM 15.1 °F 7.7 °F 7.0 °F 70% 30.34 in 10.0 mi East 4.6 mph - N/A   Mostly Cloudy
11:52 AM 16.0 °F - 8.1 °F 71% 30.30 in 10.0 mi Calm Calm - N/A   Overcast
12:52 PM 18.0 °F - 9.0 °F 68% 30.27 in 10.0 mi Calm Calm - N/A   Mostly Cloudy
1:52 PM 19.0 °F 12.3 °F 10.0 °F 68% 30.25 in 10.0 mi SSE 4.6 mph - N/A   Overcast
2:52 PM 19.0 °F 13.9 °F 10.0 °F 68% 30.24 in 10.0 mi SE 3.5 mph - N/A   Overcast
3:52 PM 19.0 °F 12.3 °F 10.9 °F 71% 30.23 in 10.0 mi SE 4.6 mph - N/A   Overcast
4:52 PM 19.9 °F 12.1 °F 12.0 °F 71% 30.22 in 10.0 mi East 5.8 mph - N/A   Overcast
5:52 PM 19.9 °F 12.1 °F 12.0 °F 71% 30.20 in 10.0 mi East 5.8 mph - N/A   Overcast
6:52 PM 19.4 °F 10.4 °F 12.2 °F 74% 30.16 in 10.0 mi East 6.9 mph - N/A   Overcast
7:52 PM 19.9 °F 10.1 °F 12.9 °F 74% 30.18 in 10.0 mi ESE 8.1 mph - N/A   Overcast
8:52 PM 19.9 °F 13.4 °F 12.9 °F 74% 30.17 in 10.0 mi ESE 4.6 mph - N/A   Overcast
9:52 PM 21.0 °F 11.4 °F 14.0 °F 74% 30.14 in 10.0 mi SE 8.1 mph - N/A   Overcast
10:52 PM 21.0 °F 10.6 °F 14.0 °F 74% 30.12 in 10.0 mi SE 9.2 mph - N/A   Overcast
11:52 PM 21.0 °F 10.6 °F 15.1 °F 78% 30.08 in 10.0 mi SE 9.2 mph - N/A   Overcast